Location: ??
(35.4032°N, 139.3073°E)
Time: 10:11:17
(UTC+00:00)

Cosmos 1151 Rocket - Visible Passes

Search period start: 24 July 2024 00:00
Search period end: 03 August 2024 00:00
Orbit: 588 x 610 km, 82.5° (Epoch: 24 July)

Date Brightness Start Highest point End Pass type
(mag) Time Alt. Az. Time Alt. Az. Time Alt. Az.
24 Jul 5.5 15:22:52 10° NNE 15:24:33 19° NNE 15:24:33 19° NNE visible
24 Jul 5.6 17:00:53 10° NW 17:01:16 12° NW 17:01:16 12° NW visible
25 Jul 5.3 15:33:41 10° N 15:35:23 22° NNE 15:35:23 22° NNE visible
26 Jul 5.3 15:44:42 10° N 15:46:15 22° N 15:46:15 22° N visible
27 Jul 5.5 15:55:55 10° NNW 15:57:07 18° NNW 15:57:07 18° NNW visible
28 Jul 6.0 14:30:55 10° NNE 14:31:16 11° NE 14:31:16 11° NE visible
28 Jul 5.7 16:07:21 10° NNW 16:08:00 14° NNW 16:08:00 14° NNW visible
29 Jul 5.8 14:41:18 10° NNE 14:42:10 14° NNE 14:42:10 14° NNE visible
30 Jul 5.8 14:52:03 10° N 14:53:04 16° NNE 14:53:04 16° NNE visible
31 Jul 5.8 15:03:02 10° N 15:03:59 16° N 15:03:59 16° N visible
01 Aug 5.9 15:14:12 10° NNW 15:14:54 14° NNW 15:14:54 14° NNW visible
02 Aug 6.0 15:25:34 10° NNW 15:25:50 11° NNW 15:25:50 11° NNW visible
